Regional Weather Roundup
Issued by NWS Goodland, KS

Home | Current Version | Previous Version | Graphics & Text | Print | Product List | Glossary On
Versions: 1 2 3 4 5 6 7 8 9 10 11 12 13 14 15 16 17 18 19 20 21 22 23 24 25 26 27 28 29 30 31 32 33 34 35 36 37 38 39 40 41 42 43 44 45 46 47 48 49 50
909
ASUS43 KGLD 221159
RWRGLD

GOODLAND FORECAST AREA HOURLY WEATHER ROUNDUP
NATIONAL WEATHER SERVICE GOODLAND KS
600 AM MDT WED MAR 22 2017

...OFFICIAL OBSERVATIONS...

CITY           SKY/WX    TMP DP  RH WIND       PRES   REMARKS
GOODLAND KS    CLOUDY    37  32  82 SE17      30.20S
HILL CITY KS   PTCLDY    34  25  69 E7        30.28S
IMPERIAL NEB   CLOUDY    34  24  67 SE16      30.21S
MCCOOK NEB     CLOUDY    35  25  66 SE12      30.26F
AKRON CO       CLOUDY    34  24  67 SE22G30   30.11F
BURLINGTON CO  CLOUDY    39  32  76 SE21      30.17S
LIMON CO       CLOUDY    34  25  69 S13G21    30.15S
$$

...UNOFFICIAL OBSERVATIONS...

CITY           SKY/WX    TMP DP  RH WIND       PRES   REMARKS
LENORA KS        N/A     36  32  85 E6          N/A
NORTON KS      CLOUDY    36  21  55 E8        30.28R
SHARON SPRINGS   N/A     40  34  78 E10         N/A
TRENTON NEB      N/A     35  32  89 S8          N/A
KIT CARSON CO    N/A     40  28  63 MISG        N/A
YUMA CO        MOCLDY    32  30  93 SE10      30.14F
$$




USA.gov is the U.S. government's official web portal to all federal, state and local government web resources and services.